Glendale Luke AFB, AZ

12:56 AM MST on August 24, 2019 (GMT -0700)
Luke Air Force Base

Weather History for KLUF - July, 2019

Change the Weather History Date:

Monday, July 22, 2019

  Actual Average Record
Temperature  
Mean Temperature 92 °F -  
Max Temperature 105 °F 104 °F 114 °F (2006)
Min Temperature 78 °F 74 °F 61 °F (1973)
Cooling Degree Days 26    
Growing Degree Days 42 (Base 50)    
Moisture  
Dew Point 62 °F    
Average Humidity 40    
Maximum Humidity 82    
Minimum Humidity 20    
Precipitation  
Precipitation 0.26 in - - ()
Sea Level Pressure  
Sea Level Pressure 29.89 in    
Wind  
Wind Speed 14 mph (SSW)    
Max Wind Speed 37 mph    
Max Gust Speed 44 mph    
Visibility 9 miles    
Events Rain , Thunderstorm    
Averages and records for this station are not official NWS values.
T = Trace of Precipitation, MM = Missing Value Source: NWS Daily Summary

Daily Weather History Graph

Daily Weather History Graph

Search for Another Location

Airport or City:

Astronomy

Jul. 22, 2019 Rise Set
Actual Time 5:34 AM MST 7:36 PM MST
Civil Twilight 5:07 AM MST 8:04 PM MST
Nautical Twilight 4:33 AM MST 8:38 PM MST
Astronomical Twilight 3:56 AM MST 9:14 PM MST
Moon 11:14 PM MST (7/22) 10:41 AM MST (7/22)
Length of Visible Light 14h 57m
Length of Day
14h 01m
Waning Gibbous, 71% of the Moon is Illuminated
Jul 22
Waning Gibbous
Jul 24
Last Quarter
Jul 31
New
Aug 7
First Quarter
Aug 15
Full

Hourly Weather History & Observations

Time (MST) Temp. Heat Index Dew Point Humidity Pressure Visibility Wind Dir Wind Speed Gust Speed Precip Events Conditions
12:58 AM 95.2 °F 95.9 °F 61.5 °F 33% 29.77 in 10.0 mi SW 13.8 mph - N/A   Partly Cloudy
1:58 AM 94.6 °F 95.5 °F 61.9 °F 34% 29.77 in 10.0 mi SW 10.4 mph - N/A   Partly Cloudy
2:58 AM 93.9 °F 94.8 °F 62.1 °F 35% 29.77 in 10.0 mi SW 10.4 mph - N/A   Partly Cloudy
3:58 AM 92.1 °F 93.2 °F 62.8 °F 38% 29.80 in 10.0 mi SW 17.3 mph - N/A   Mostly Cloudy
4:58 AM 91.0 °F 92.2 °F 63.3 °F 40% 29.83 in 10.0 mi SW 18.4 mph - N/A   Scattered Clouds
5:58 AM 90.5 °F 91.1 °F 62.1 °F 39% 29.86 in 10.0 mi WSW 11.5 mph - N/A   Partly Cloudy
6:58 AM 91.2 °F 91.8 °F 62.1 °F 38% 29.87 in 10.0 mi WSW 12.7 mph - N/A   Partly Cloudy
7:58 AM 92.7 °F 92.9 °F 61.0 °F 35% 29.90 in 10.0 mi WSW 13.8 mph - N/A   Clear
8:58 AM 93.9 °F 94.0 °F 60.4 °F 33% 29.91 in 10.0 mi WSW 12.7 mph - N/A   Clear
9:58 AM 95.9 °F 95.7 °F 60.3 °F 30% 29.91 in 10.0 mi WSW 11.5 mph - N/A   Scattered Clouds
10:58 AM 98.6 °F 98.5 °F 59.7 °F 27% 29.91 in 10.0 mi SW 12.7 mph - N/A   Scattered Clouds
11:58 AM 99.1 °F 99.8 °F 60.3 °F 28% 29.88 in 10.0 mi SSW 10.4 mph - N/A   Scattered Clouds
12:58 PM 97.7 °F 98.5 °F 61.0 °F 30% 29.88 in 10.0 mi SSW 15.0 mph - N/A   Scattered Clouds
1:58 PM 100.4 °F 101.8 °F 61.3 °F 28% 29.86 in 10.0 mi SW 10.4 mph - N/A   Scattered Clouds
2:58 PM 100.8 °F 100.8 °F 58.5 °F 25% 29.83 in 10.0 mi WSW 9.2 mph - N/A   Scattered Clouds
3:58 PM 103.1 °F 102.7 °F 56.8 °F 22% 29.78 in 10.0 mi West 10.4 mph - N/A   Partly Cloudy
4:58 PM 104.5 °F 104.2 °F 57.9 °F 21% 29.76 in 10.0 mi SSW 12.7 mph - N/A   Clear
5:58 PM 105.1 °F 104.4 °F 55.8 °F 20% 29.76 in 10.0 mi West 10.4 mph - N/A   Clear
6:58 PM 104.2 °F 103.1 °F 55.0 °F 20% 29.77 in 10.0 mi WSW 9.2 mph - N/A   Partly Cloudy
7:58 PM 102.7 °F 101.6 °F 55.2 °F 21% 29.79 in 10.0 mi South 9.2 mph - N/A   Overcast
8:58 PM 101.5 °F 100.8 °F 56.7 °F 23% 29.84 in 10.0 mi SSE 10.4 mph - N/A   Mostly Cloudy
9:09 PM 100.4 °F 99.7 °F 57.2 °F 24% 29.84 in 10.0 mi SSE 36.8 mph 43.7 mph N/A   Mostly Cloudy
9:19 PM 93.2 °F 93.3 °F 60.8 °F 34% 29.88 in 3.0 mi SSE 31.1 mph 42.6 mph N/A   Haze
9:29 PM 91.4 °F 92.1 °F 62.6 °F 38% 29.90 in 6.0 mi SSE 31.1 mph 41.4 mph N/A   Haze
9:58 PM 88.0 °F 89.0 °F 63.9 °F 44% 29.92 in 10.0 mi SSE 26.5 mph 34.5 mph N/A   Overcast
10:08 PM 87.8 °F 88.5 °F 62.6 °F 43% 29.93 in 10.0 mi SSE 28.8 mph 41.4 mph N/A   Overcast
10:33 PM 87.8 °F 88.5 °F 62.6 °F 43% 29.97 in 10.0 mi SE 25.3 mph 33.4 mph N/A Rain Light Rain
10:35 PM 87.8 °F 89.4 °F 64.4 °F 46% 29.97 in 10.0 mi SE 23.0 mph 33.4 mph N/A Rain Light Rain
10:45 PM 82.4 °F 85.4 °F 68.0 °F 62% 30.00 in 4.0 mi SE 15.0 mph 33.4 mph N/A Rain Light Rain
10:55 PM 82.4 °F 84.6 °F 66.2 °F 58% 30.03 in 3.0 mi ESE 4.6 mph - N/A Rain , Thunderstorm Heavy Rain
10:58 PM 82.2 °F 84.2 °F 65.8 °F 57% 30.02 in 5.0 mi SSE 8.1 mph - 0.26 in Rain , Thunderstorm Rain
11:07 PM 84.2 °F 86.6 °F 66.2 °F 55% 30.02 in 10.0 mi SE 10.4 mph - N/A Thunderstorm Mostly Cloudy
11:12 PM 84.2 °F 86.6 °F 66.2 °F 55% 30.02 in 10.0 mi East 6.9 mph - N/A Thunderstorm Light Drizzle
11:21 PM 82.4 °F 85.4 °F 68.0 °F 62% 30.02 in 10.0 mi North 12.7 mph - N/A   Mostly Cloudy
11:34 PM 80.6 °F 84.6 °F 71.6 °F 74% 30.01 in 10.0 mi North 11.5 mph - N/A Thunderstorm Light Drizzle
11:44 PM 78.8 °F - 71.6 °F 78% 30.01 in 10.0 mi North 9.2 mph - N/A   Partly Cloudy
11:58 PM 78.6 °F - 72.7 °F 82% 30.01 in 10.0 mi North 9.2 mph - 0.00 in   Partly Cloudy